When you browse on this site, cookies collect data to enhance your experience and personalize the content and advertising you see.
Visit our Privacy Policy to learn more. By continuing to use the site, you agree to this use of cookies and data.
  • In Latvia
  • List of Countries
  • For 7 days
  • Water Temperature
  • Satellite Maps
  • Weather Map
  • Weather Widgets
  • user-avatar
    Login

    Hourly Weather Malyachkino

    Today, 21 July, Sunday

    Time Temperature Precipitation Wind Pressure Humidity
    00:00 +17°C° 0 mm 2 mps 755 mmHg 81%
    01:00 +17°C° 0 mm 2 mps 755 mmHg 83%
    02:00 +16°C° 0 mm 3 mps 754 mmHg 85%
    03:00 +16°C° 0 mm 2 mps 755 mmHg 84%
    04:00 +17°C° 0 mm 2 mps 755 mmHg 82%
    05:00 +18°C° 0 mm 3 mps 755 mmHg 81%
    06:00 +19°C° 0 mm 3 mps 755 mmHg 80%
    07:00 +20°C° 0 mm 3 mps 755 mmHg 75%
    08:00 +22°C° 0 mm 4 mps 755 mmHg 70%
    09:00 +23°C° 0 mm 4 mps 755 mmHg 64%
    10:00 +25°C° 0.1 mm 5 mps 755 mmHg 62%
    11:00 +25°C° 0.1 mm 5 mps 755 mmHg 60%
    12:00 +26°C° 0.1 mm 5 mps 754 mmHg 58%
    13:00 +26°C° 0.2 mm 6 mps 754 mmHg 57%
    14:00 +27°C° 0.2 mm 6 mps 754 mmHg 56%
    15:00 +27°C° 0.2 mm 6 mps 754 mmHg 55%
    16:00 +26°C° 0.1 mm 5 mps 754 mmHg 60%
    17:00 +26°C° 0.1 mm 4 mps 754 mmHg 65%
    18:00 +25°C° 0.1 mm 3 mps 754 mmHg 70%
    19:00 +22°C° 0 mm 3 mps 754 mmHg 74%
    20:00 +20°C° 0 mm 3 mps 754 mmHg 78%
    21:00 +19°C° 0 mm 3 mps 754 mmHg 82%
    22:00 +18°C° 0 mm 3 mps 754 mmHg 83%
    23:00 +18°C° 0 mm 3 mps 754 mmHg 85%

    Tomorrow, 22 July, Monday

    Time Temperature Precipitation Wind Pressure Humidity
    00:00 +17°C° 0 mm 3 mps 754 mmHg 86%
    01:00 +17°C° 0 mm 3 mps 754 mmHg 88%
    02:00 +16°C° 0 mm 3 mps 754 mmHg 90%
    03:00 +16°C° 0 mm 3 mps 754 mmHg 92%
    04:00 +17°C° 0 mm 3 mps 754 mmHg 90%
    05:00 +17°C° 0 mm 3 mps 754 mmHg 88%
    06:00 +18°C° 0 mm 3 mps 754 mmHg 85%
    07:00 +20°C° 0 mm 3 mps 754 mmHg 80%
    08:00 +21°C° 0 mm 4 mps 753 mmHg 75%
    09:00 +22°C° 0 mm 4 mps 753 mmHg 69%
    10:00 +23°C° 0.1 mm 4 mps 753 mmHg 65%
    11:00 +25°C° 0.1 mm 5 mps 753 mmHg 60%
    12:00 +25°C° 0.1 mm 5 mps 753 mmHg 56%
    13:00 +25°C° 0.1 mm 5 mps 753 mmHg 58%
    14:00 +25°C° 0.1 mm 5 mps 753 mmHg 59%
    15:00 +24°C° 0.1 mm 6 mps 752 mmHg 61%
    16:00 +23°C° 0 mm 5 mps 752 mmHg 64%
    17:00 +22°C° 0 mm 5 mps 753 mmHg 67%
    18:00 +21°C° 0 mm 5 mps 753 mmHg 71%
    19:00 +20°C° 0 mm 4 mps 753 mmHg 75%
    20:00 +19°C° 0 mm 4 mps 753 mmHg 80%
    21:00 +17°C° 0 mm 3 mps 753 mmHg 85%
    22:00 +17°C° 0 mm 3 mps 753 mmHg 87%
    23:00 +16°C° 0 mm 3 mps 753 mmHg 89%

    Day after tomorrow, 23 July, Tuesday

    Time Temperature Precipitation Wind Pressure Humidity
    00:00 +16°C° 0 mm 3 mps 753 mmHg 91%
    01:00 +14°C° 0 mm 3 mps 753 mmHg 91%
    02:00 +14°C° 0 mm 3 mps 753 mmHg 91%
    03:00 +14°C° 0 mm 3 mps 753 mmHg 92%
    04:00 +16°C° 0 mm 3 mps 753 mmHg 89%
    05:00 +17°C° 0 mm 3 mps 753 mmHg 85%
    06:00 +17°C° 0 mm 3 mps 753 mmHg 82%
    07:00 +19°C° 0 mm 4 mps 753 mmHg 76%
    08:00 +21°C° 0 mm 4 mps 753 mmHg 70%
    09:00 +22°C° 0 mm 4 mps 753 mmHg 64%
    10:00 +23°C° 0 mm 4 mps 753 mmHg 61%
    11:00 +25°C° 0 mm 4 mps 753 mmHg 58%
    12:00 +26°C° 0 mm 4 mps 753 mmHg 54%
    13:00 +26°C° 0 mm 4 mps 753 mmHg 55%
    14:00 +26°C° 0 mm 4 mps 753 mmHg 55%
    15:00 +26°C° 0 mm 4 mps 753 mmHg 56%
    16:00 +26°C° 0 mm 3 mps 753 mmHg 60%
    17:00 +25°C° 0 mm 3 mps 753 mmHg 65%
    18:00 +25°C° 0 mm 2 mps 753 mmHg 70%
    19:00 +23°C° 0 mm 2 mps 754 mmHg 75%
    20:00 +21°C° 0 mm 1 mps 754 mmHg 79%
    21:00 +20°C° 0 mm 1 mps 754 mmHg 84%
    22:00 +19°C° 0 mm 1 mps 754 mmHg 85%
    23:00 +19°C° 0 mm 1 mps 754 mmHg 86%

    24 July, Wednesday

    Time Temperature Precipitation Wind Pressure Humidity
    00:00 +18°C° 0 mm 1 mps 754 mmHg 87%
    01:00 +18°C° 0 mm 1 mps 754 mmHg 87%
    02:00 +18°C° 0 mm 1 mps 754 mmHg 87%
    03:00 +16°C° 0 mm 1 mps 754 mmHg 87%
    04:00 +18°C° 0 mm 1 mps 754 mmHg 84%
    05:00 +17°C° 0 mm 0 mps 754 mmHg 81%
    06:00 +18°C° 0 mm 0 mps 755 mmHg 78%
    07:00 +20°C° 0 mm 0 mps 755 mmHg 73%
    08:00 +21°C° 0 mm 0 mps 755 mmHg 68%
    09:00 +22°C° 0 mm 0 mps 755 mmHg 63%
    10:00 +25°C° 0 mm 1 mps 755 mmHg 59%
    11:00 +26°C° 0 mm 1 mps 755 mmHg 55%
    12:00 +27°C° 0 mm 1 mps 755 mmHg 52%
    13:00 +27°C° 0 mm 1 mps 755 mmHg 51%
    14:00 +28°C° 0 mm 1 mps 755 mmHg 50%
    15:00 +28°C° 0 mm 1 mps 755 mmHg 50%
    16:00 +28°C° 0 mm 1 mps 755 mmHg 54%
    17:00 +27°C° 0 mm 1 mps 755 mmHg 58%
    18:00 +27°C° 0 mm 1 mps 755 mmHg 62%
    19:00 +25°C° 0 mm 1 mps 755 mmHg 66%
    20:00 +23°C° 0 mm 1 mps 755 mmHg 70%
    21:00 +21°C° 0 mm 1 mps 755 mmHg 74%
    22:00 +21°C° 0 mm 1 mps 755 mmHg 75%
    23:00 +19°C° 0 mm 0 mps 755 mmHg 76%

    25 July, Thursday

    Time Temperature Precipitation Wind Pressure Humidity
    00:00 +18°C° 0 mm 0 mps 755 mmHg 77%
    01:00 +18°C° 0 mm 0 mps 755 mmHg 78%
    02:00 +17°C° 0 mm 0 mps 755 mmHg 79%
    03:00 +17°C° 0 mm 0 mps 755 mmHg 79%
    04:00 +18°C° 0 mm 0 mps 755 mmHg 77%
    05:00 +19°C° 0 mm 0 mps 756 mmHg 75%
    06:00 +20°C° 0 mm 0 mps 756 mmHg 73%
    07:00 +21°C° 0 mm 0 mps 756 mmHg 69%
    08:00 +23°C° 0 mm 0 mps 756 mmHg 65%
    09:00 +24°C° 0 mm 0 mps 756 mmHg 61%
    10:00 +27°C° 0 mm 1 mps 756 mmHg 58%
    11:00 +28°C° 0 mm 1 mps 755 mmHg 55%
    12:00 +28°C° 0 mm 1 mps 755 mmHg 52%
    13:00 +29°C° 0 mm 1 mps 755 mmHg 51%
    14:00 +29°C° 0 mm 2 mps 755 mmHg 50%
    15:00 +29°C° 0 mm 2 mps 754 mmHg 49%
    16:00 +29°C° 0 mm 2 mps 754 mmHg 53%
    17:00 +28°C° 0 mm 2 mps 754 mmHg 58%
    18:00 +27°C° 0 mm 2 mps 754 mmHg 63%
    19:00 +26°C° 0 mm 1 mps 754 mmHg 66%
    20:00 +24°C° 0 mm 1 mps 754 mmHg 68%
    21:00 +22°C° 0 mm 1 mps 754 mmHg 71%
    22:00 +22°C° 0 mm 1 mps 754 mmHg 73%
    23:00 +22°C° 0 mm 1 mps 754 mmHg 74%

    26 July, Friday

    Time Temperature Precipitation Wind Pressure Humidity
    00:00 +21°C° 0 mm 1 mps 754 mmHg 76%
    01:00 +21°C° 0 mm 1 mps 754 mmHg 79%
    02:00 +20°C° 0 mm 1 mps 754 mmHg 83%
    03:00 +20°C° 0 mm 1 mps 753 mmHg 87%
    04:00 +20°C° 0 mm 1 mps 753 mmHg 86%
    05:00 +20°C° 0 mm 2 mps 753 mmHg 85%
    06:00 +21°C° 0 mm 2 mps 753 mmHg 84%
    07:00 +23°C° 0 mm 2 mps 753 mmHg 79%
    08:00 +24°C° 0 mm 2 mps 753 mmHg 74%
    09:00 +25°C° 0 mm 2 mps 753 mmHg 69%
    10:00 +26°C° 0 mm 2 mps 752 mmHg 66%
    11:00 +27°C° 0 mm 2 mps 752 mmHg 63%
    12:00 +27°C° 0 mm 3 mps 752 mmHg 60%
    13:00 +28°C° 0 mm 3 mps 751 mmHg 59%
    14:00 +28°C° 0 mm 3 mps 751 mmHg 58%
    15:00 +28°C° 0 mm 3 mps 751 mmHg 57%
    16:00 +27°C° 0.1 mm 3 mps 751 mmHg 61%
    17:00 +26°C° 0.1 mm 3 mps 750 mmHg 64%
    18:00 +26°C° 0.1 mm 2 mps 750 mmHg 68%
    19:00 +24°C° 0 mm 2 mps 750 mmHg 70%
    20:00 +23°C° 0 mm 2 mps 750 mmHg 72%
    21:00 +20°C° 0 mm 2 mps 750 mmHg 74%
    22:00 +20°C° 0 mm 2 mps 750 mmHg 76%
    23:00 +19°C° 0 mm 2 mps 749 mmHg 79%
    Show more